Location: Derby
(52.9213°N, 1.4761°W)
Time: 02:14:47
(UTC+01:00)

Vanguard 2 Rocket - Pass Details

Date: 19 May 2025
Orbit: 554 x 3293 km, 32.9° (Epoch: 12 June)

Event Time Altitude Azimuth Distance (km) Brightness Sun altitude
Rises 00:36:48 0° 227° (SW) 6,991 11.1 -17.1°
Reaches altitude 10° 00:43:02 10° 217° (SW) 5,642 10.5 -17.2°
Maximum altitude 00:54:32 25° 172° (S) 3,654 9.3 -17.3°
Drops below altitude 10° 01:02:40 10° 123° (ESE) 3,886 9.8 -17.3°
Sets 01:05:58 0° 110° (ESE) 4,490 10.3 -17.3°
